Preview of NWS' New Version of Forecast
This preview is not operational and should not be used for support decisions.
Latest weather observations around

Marietta / Dobbins Air Force Base (KMGE)

Using English Units (Switch to International System of Units)
Date/ Time (EDT) Wind (mph) Vis. (mi) Weather Sky Cond. Temp (°F) Rel. Humidity Wind Chill (°F) Heat Index (°F) Pressure Precip. (in)
Air Dwpt 6 hour Altimeter (inHg) Sea level (inHg) 1 hr 3 hr 6 hr
Max Min
Sep 21 21:56 NNE 2 10 Clear CLR 73 57     58%   72 30.23 30.21      
Sep 21 20:56 ENE 2 10 Clear CLR 75 57     53%   75 30.22 30.2      
Sep 21 19:56 ENE 1 10 Mostly Clear FEW060 FEW250 78 55     45%   78 30.2 30.18      
Sep 21 18:56 ESE 3 10 Mostly Clear FEW060 82 54     38%   81 30.2 30.18      
Sep 21 17:56 Calm 10 Mostly Clear FEW060 FEW250 84 54     35%   83 30.2 30.18      
Sep 21 16:56 ESE 3 10 Mostly Clear FEW060 FEW250 84 54     36%   83 30.21 30.19      
Sep 21 15:56 ENE 5 10 Mostly Clear FEW060 FEW250 85 56     37%   84 30.23 30.21      
Sep 21 14:56 NE 3 10 Mostly Clear FEW060 FEW250 83 56     39%   82 30.26 30.24      
Sep 21 13:56 S 5 10 Partly Cloudy SCT060 SCT250 84 55     37%   83 30.28 30.26      
Sep 21 12:56 ENE 3 10 Partly Cloudy SCT035 SCT250 80 59     50%   80 30.3 30.28      
Sep 21 11:56 SSE 7 10 Partly Cloudy SCT030 SCT250 80 63     57%   81 30.32 30.3      
Sep 21 10:56 S 2 10 Mostly Clear FEW030 FEW250 76 64     66%   76 30.34 30.32      
Sep 21 09:56 E 3 10 Mostly Clear FEW250 72 61     69%   72 30.34 30.32      
Sep 21 08:56 E 3 10 Clear CLR 65 57     75%     30.34 30.32      
Sep 21 07:56 ESE 2 10 Mostly Clear FEW250 61 54     80%     30.33 30.31      
Sep 21 06:56 Calm 10 Clear CLR 61 54     80%     30.32 30.3      
Sep 21 05:56 Calm 10 Clear CLR 61 54     79%     30.29 30.27      
Sep 21 04:56 Calm 10 Clear CLR 61 54     80%     30.28 30.26      
Sep 21 03:56 Calm 10 Clear CLR 62 55     78%     30.28 30.26      
Sep 21 02:56 Calm 10 Clear CLR 61 55     80%     30.29 30.27      
Sep 21 01:56 Calm 10 Clear CLR 62 55     78%     30.28 30.26      
Sep 21 00:56 Calm 10 Clear CLR 64 55     72%     30.28 30.26      
Sep 20 23:56 Calm 10 Clear CLR 65 55     71%     30.28 30.26      
Sep 20 22:56 Calm 10 Clear CLR 69 54     60%     30.28 30.26      
Sep 20 21:56 NE 2 10 Clear CLR 70 54     58%     30.26 30.24      
Sep 20 20:56 ENE 5 10 Clear CLR 71 55     57%   70 30.25 30.23      
Sep 20 19:56 NE 3 10 Clear   75 54     48%   75 30.24 30.22      
Sep 20 18:56 E 7 10 Mostly Clear FEW250 79 54     42%   78 30.23 30.21      
Sep 20 17:56 E 8 10 Clear   80 53     39%   80 30.23 30.21      
Sep 20 16:56 E 8 10 Clear CLR 80 53     39%   80 30.23 30.21      
Sep 20 15:56 E 6 10 Clear CLR 80 53     39%   80 30.24 30.22      
Sep 20 14:56 E 8 10 Clear CLR 79 53     41%   78 30.26 30.24      
Sep 20 13:56 ESE 11 10 Clear CLR 78 53     42%   77 30.29 30.27      
Sep 20 12:56 SE 7 10 Clear CLR 76 51     42%   75 30.31 30.29      
Sep 20 11:56 E 6 10 Mostly Clear FEW250 73 52     47%   72 30.33 30.31      
Sep 20 10:56 ESE 9 10 Mostly Clear FEW250 72 53     51%   71 30.33 30.31      
Sep 20 09:56 E 8 10 Mostly Clear FEW250 69 54     59%     30.32 30.3      
Sep 20 08:56 E 6 10 Mostly Clear FEW250 65 54     69%     30.31 30.29      
Sep 20 07:56 ENE 3 10 Mostly Clear FEW100 61 55     80%     30.3 30.28      
Sep 20 06:56 ENE 3 10 Mostly Clear FEW250 62 55     77%     30.28 30.26      
Sep 20 05:56 Calm 10 Clear CLR 61 54     79%     30.26 30.24      
Sep 20 04:56 E 6 10 Clear CLR 63 55     74%     30.25 30.23      
Sep 20 03:56 E 7 10 Clear CLR 64 55     72%     30.25 30.23      
Sep 20 02:56 E 10 10 Mostly Clear FEW085 65 55     70%     30.25 30.23      
Sep 20 01:56 E 5 10 Partly Cloudy SCT080 66 55     67%     30.25 30.23      
Sep 20 00:56 E 5 10 Clear CLR 67 55     67%     30.24 30.22      
Sep 19 23:56 E 7 10 Clear CLR 68 56     65%     30.23 30.21      
Sep 19 22:56 ENE 6 10 Partly Cloudy SCT080 70 55     60%     30.23 30.21      
Sep 19 21:56 E 6 10 Partly Cloudy SCT080 71 55     58%   70 30.21 30.19      
Sep 19 20:56 E 7 10 Mostly Clear FEW080 FEW250 72 55     55%   71 30.19 30.17      
Sep 19 19:56 E 11 10 Mostly Clear FEW080 FEW250 74 55     52%   73 30.17 30.15      
Sep 19 18:56 ESE 11 10 Mostly Clear FEW080 77 57     51%   76 30.16 30.14      
Sep 19 17:56 ESE 10 10 Clear CLR 78 56     47%   78 30.17 30.15      
Sep 19 16:56 E 10 10 Mostly Clear FEW055 79 57     46%   79 30.17 30.15      
Sep 19 15:56 E 8 10 Mostly Clear FEW055 79 57     46%   79 30.18 30.16      
Sep 19 14:56 ESE 8 10 Mostly Clear FEW050 FEW250 79 56     46%   79 30.19 30.16      
Sep 19 13:56 E 11 10 Mostly Clear FEW050 78 56     46%   78 30.2 30.18      
Sep 19 12:56 SE 13 10 Partly Cloudy FEW045 SCT100 78 56     46%   78 30.22 30.19      
Sep 19 11:56 E 10 10 Partly Cloudy SCT100 76 56     51%   75 30.23 30.21      
Sep 19 10:56 ESE 14 10 Partly Cloudy FEW055 SCT100 74 57     55%   74 30.23 30.21      
Sep 19 09:56 E 16 10 Cloudy OVC050 71 59     64%   71 30.23 30.21      
Sep 19 08:56 E 13 10 Mostly Cloudy BKN045 BKN130 69 59     70%     30.21 30.19      
Sep 19 07:56 E 8 10 Mostly Cloudy SCT040 SCT130 BKN250 67 59     74%     30.19 30.17      
Sep 19 06:56 E 8 10 Mostly Cloudy SCT044 BKN250 68 59     73%     30.17 30.15      
Sep 19 05:56 E 9 10 Cloudy OVC044 69 59     70%     30.16 30.14      
Sep 19 04:56 Calm 10 Mostly Cloudy BKN040 69 58     70%     30.15 30.13      
Sep 19 03:56 E 6 10 Clear CLR 69 58     68%     30.14 30.11      
Sep 19 02:56 E 9 10 Mostly Clear FEW047 70 57     63%   70 30.14 30.11      
Sep 19 01:56 E 10 10 Mostly Cloudy BKN041 71 57     61%   71 30.14        
Sep 19 00:56 E 10 10 Cloudy OVC035 71 58     65%   70 30.14        
Sep 18 23:56 E 10 10 Clear CLR 70 58     66%     30.14        
Sep 18 22:56 E 10 10 Clear CLR 71 60     67%   71 30.13 30.11      
Sep 18 20:56 E 5 10 Clear CLR 74 64     71%   74 30.09        
Sep 18 19:56 E 6 10 Mostly Clear FEW028 75 65     72%   76 30.07 30.05      
May 14 22:56 SSE 7 10 Cloudy OVC250 79 64     61%   79 30 29.97      
May 14 07:56 WNW 3 10 Mostly Cloudy FEW150 BKN250 69 62     79%     30.06 30.03      
May 13 02:56 Calm 10 Clear CLR 67 58     73%     30.08 30.05      
May 12 16:56 WNW 9 10 Partly Cloudy SCT070 SCT250 87 57     37%   86 30.1 30.07      
May 11 17:56 SW 5 10 Partly Cloudy SCT065 87 58     38%   86 30.07 30.04      
Notice The following observation data may not be complete
Jun 12 08:36   7 Cloudy OVC009          %              
Jun 11 21:58 SSE 5 10 Mostly Cloudy SCT039 BKN250 80 66     64%   82 30.17 30.14      
Jun 11 15:58 ESE 10 10 Clear   84 68     58%   88 30.17 30.14      
Notice The following observation data may not be complete
Jun 11 10:58   10 Cloudy BKN018 OVC250          %              
Jun 11 10:35 SE 6 10 Cloudy BKN017 OVC250 77 70     78%   78 30.23        
Jun 08 22:58 Calm 10 Partly Cloudy SCT070 69 60     74%     29.91 29.89      
Jun 08 03:58 E 7 10 Clear CLR 66 63     89%     29.87 29.85      
Jun 08 01:10 E 8 10 Light Drizzle FEW015 SCT026 68 64     88%     29.89 29.87      
Jun 07 15:58 E 7 10 Clear CLR 79 56     44%   79 29.82 29.8      
Notice The following observation data may not be complete
Jun 07 13:58   10 Mostly Cloudy FEW045 SCT070 BKN250          %              
Jun 06 10:58 NW 5 10 Mostly Cloudy FEW020 SCT060 BKN120 BKN200 77 67     71%   78 29.83 29.8      
Jun 05 17:27 W 15 7 Cloudy FEW010 FEW041 SCT120 OVC200 72 68     88%   73 29.83